{"data":{"norad_id":51749,"epoch":"2026-05-24T21:54:32.186592Z","epoch_age_seconds":79703,"freshness":"FRESH","line1":"1 51749U 22016AM  26144.91287253  .00000097  00000+0  24174-4 0  9998","line2":"2 51749  53.2140 337.1224 0001315  84.2844 275.8298 15.08838033235061","mean_motion":15.08838033,"eccentricity":0.0001315,"inclination_deg":53.214,"raan_deg":337.1224,"arg_perigee_deg":84.2844,"mean_anomaly_deg":275.8298,"bstar":2.4174e-5,"rev_number":23506,"period_min":95.437679095142,"perigee_km":538.83969924095,"apogee_km":540.6591033645,"semimajor_km":6917.8864013027,"source":"CELESTRAK","updated_at":"2026-05-25T13:38:16.946827Z"}}